Weather reports worldwide

Advertisment
Lelystad aws, Netherlands (6269): temperature & dewpoint: 19.01.2020 17:00:00 - 25.01.2020 17:00:00 (CET)Lelystad aws, Netherlands (6269): temperature 5cm: 19.01.2020 17:00:00 - 25.01.2020 17:00:00 (CET)Lelystad aws, Netherlands (6269): wind speed & gusts: 19.01.2020 17:00:00 - 25.01.2020 17:00:00 (CET)Lelystad aws, Netherlands (6269): wind direction: 19.01.2020 17:00:00 - 25.01.2020 17:00:00 (CET)Lelystad aws, Netherlands (6269): reduced air pressure: 19.01.2020 17:00:00 - 25.01.2020 17:00:00 (CET)Lelystad aws, Netherlands (6269): visibility: 19.01.2020 17:00:00 - 25.01.2020 17:00:00 (CET)Lelystad aws, Netherlands (6269): precipitation: 19.01.2020 17:00:00 - 25.01.2020 17:00:00 (CET)
Date & Time tt [°C] td [°C] tt 5cm [°C] ff [km/h] ff [kn] fx [km/h] fx [kn] dd ppp [hPa] vv [km] rr [mm]
25.01.2020 17:00:00 2,7 1,1 2,6 15 8 18 10 S 1019,9 8 0,0
25.01.2020 16:00:00 2,9 1,1 3,0 13 7 18 10 S 1020,3 10 0,0
25.01.2020 15:00:00 3,1 1,2 3,5 16 9 18 10 S 1020,7 8 0,0
25.01.2020 14:00:00 3,1 1,3 3,3 15 8 25 14 SSW 1021,1 8 0,0
25.01.2020 13:00:00 2,8 1,3 2,9 13 7 25 14 SSW 1021,6 8 0,0
25.01.2020 12:00:00 2,6 1,2 2,8 15 8 25 14 SSW 1022,0 6 0,0
25.01.2020 11:00:00 2,3 1,1 2,4 13 7 22 12 SSW 1021,9 5 0,0
25.01.2020 10:00:00 2,2 1,3 2,2 11 6 22 12 SSW 1021,5 4,4 0,0
25.01.2020 09:00:00 2,1 1,4 2,1 11 6 22 12 S 1021,6 3,6 0,0
25.01.2020 08:00:00 2,1 1,5 2,1 16 9 25 14 S 1021,3 3,7 0,0
25.01.2020 07:00:00 2,3 1,7 2,3 11 6 18 10 S 1021,3 3,4 0,0
25.01.2020 06:00:00 2,3 1,7 2,3 15 8 22 12 SSW 1021,2 3,9 0,0
25.01.2020 05:00:00 2,4 1,7 2,4 15 8 22 12 SSW 1021,2 3,5 0,0
25.01.2020 04:00:00 2,5 1,8 2,4 15 8 22 12 SSW 1021,5 3,5 0,0
25.01.2020 03:00:00 2,5 1,8 2,5 15 8 25 14 SSW 1021,9 3,0 0,0
25.01.2020 02:00:00 2,6 1,8 2,5 18 10 22 12 SSW 1021,9 3,4 0,0
25.01.2020 01:00:00 2,6 1,9 2,5 16 9 22 12 SSW 1022,1 3,4 0,0
25.01.2020 00:00:00 2,7 2,1 2,6 15 8 22 12 SSW 1022,3 3,9 0,0
24.01.2020 23:00:00 2,8 2,1 2,7 15 8 22 12 SSW 1022,3 3,3 0,0
24.01.2020 22:00:00 2,9 2,3 2,9 16 9 22 12 SSW 1022,4 2,9 0,0
24.01.2020 21:00:00 3,0 2,4 2,9 18 10 22 12 SSW 1022,7 2,9 0,0
24.01.2020 20:00:00 3,1 2,3 3,0 13 7 18 10 SSW 1022,8 2,8 0,0
24.01.2020 19:00:00 3,1 2,3 3,0 13 7 18 10 SSW 1022,6 2,9 0,0
24.01.2020 18:00:00 3,2 2,2 3,1 13 7 22 12 S 1022,4 3,9 0,0
24.01.2020 17:00:00 3,4 2,2 3,3 11 6 22 12 SSW 1022,3 5 0,0
24.01.2020 16:00:00 3,4 1,9 3,4 15 8 25 14 SSW 1021,7 6 0,0
24.01.2020 15:00:00 3,5 1,9 3,8 18 10 25 14 S 1021,9 7 0,0
24.01.2020 14:00:00 3,6 2,0 4,1 16 9 22 12 SSW 1022,5 5 0,0
24.01.2020 13:00:00 3,8 1,9 4,7 13 7 18 10 SSW 1023,4 5 0,0
24.01.2020 12:00:00 3,1 1,7 3,6 13 7 25 14 SSW 1023,9 4,3 0,0
24.01.2020 11:00:00 2,7 1,6 2,9 16 9 22 12 S 1023,7 3,2 0,0
24.01.2020 10:00:00 2,2 0,9 2,1 9 5 18 10 S 1024,1 3,5 0,0
24.01.2020 09:00:00 1,9 0,6 1,8 11 6 18 10 S 1023,6 4,3 0,0
24.01.2020 08:00:00 1,8 0,4 1,7 8 4 14 8 SSW 1023,4 4,6 0,0
24.01.2020 07:00:00 1,7 0,3 1,7 8 4 14 8 SW 1023,5 4,7 0,0
24.01.2020 06:00:00 1,9 0,6 1,8 9 5 14 8 SW 1023,9 4,6 0,0
24.01.2020 05:00:00 1,8 0,3 1,7 9 5 18 10 SSW 1024,3 5 0,0
24.01.2020 04:00:00 1,9 0,7 1,9 8 4 14 8 SSW 1024,4 4,2 0,0
24.01.2020 03:00:00 2,1 0,7 2,1 8 4 14 8 S 1025,3 4,4 0,0
24.01.2020 02:00:00 2,4 1,5 2,4 8 4 11 6 SSE 1025,8 3,2 0,0
24.01.2020 01:00:00 2,4 1,6 2,4 0 0 7 4 N 1026,6 3,0 0,0
24.01.2020 00:00:00 2,2 1,3 2,3 4 2 7 4 ESE 1026,8 2,8 0,0
23.01.2020 23:00:00 2,3 1,6 2,3 9 5 14 8 SE 1027,1 3,0 0,0
23.01.2020 22:00:00 2,5 1,8 2,5 9 5 14 8 SE 1027,6 2,7 0,0
23.01.2020 21:00:00 2,6 1,9 2,7 11 6 14 8 SE 1027,8 2,9 0,0
23.01.2020 20:00:00 2,8 2,3 2,8 9 5 11 6 E 1028,4 2,8 0,0
23.01.2020 19:00:00 3,0 2,5 2,5 8 4 11 6 E 1028,7 2,6 0,0
23.01.2020 18:00:00 3,6 2,8 2,0 5 3 11 6 E 1028,8 6 0,0
23.01.2020 17:00:00 4,6 3,2 3,7 8 4 11 6 S 1029,1 10 0,0
23.01.2020 16:00:00 5,9 4,2 6,7 9 5 11 6 SSE 1029,7 10 0,0
23.01.2020 15:00:00 5,8 4,3 6,3 4 2 11 6 - 1030,2 10 0,0
23.01.2020 14:00:00 6,2 3,2 6,4 0 0 11 6 N 1031,2 10 0,0
23.01.2020 13:00:00 6,2 3,2 6,8 5 3 14 8 SE 1032,1 10 0,0
23.01.2020 12:00:00 6,1 3,7 6,4 13 7 14 8 SE 1032,7 10 0,0
23.01.2020 11:00:00 6,0 4,2 6,0 5 3 11 6 SSE 1033,7 10 0,0
23.01.2020 10:00:00 5,5 4,8 5,5 5 3 7 4 E 1033,8 10 0,0
23.01.2020 09:00:00 5,1 4,9 4,8 2 1 4 2 - 1033,8 2,7 0,0
23.01.2020 08:00:00 5,1 5,0 4,8 2 1 4 2 SE 1033,9 2,3 0,0
23.01.2020 07:00:00 5,0 4,9 4,8 0 0 4 2 N 1034,1 3,4 0,0
23.01.2020 06:00:00 5,0 4,9 4,8 2 1 4 2 ESE 1034,3 1,1 0,0
23.01.2020 05:00:00 5,1 5,0 4,7 2 1 4 2 ESE 1034,7 0,5 0,0
23.01.2020 04:00:00 5,1 5,0 4,9 2 1 7 4 SE 1035,2 0,5 0,0
23.01.2020 03:00:00 5,4 5,3 5,0 5 3 11 6 SSE 1035,7 1,7 0,0
23.01.2020 02:00:00 5,8 5,7 5,5 9 5 11 6 SSE 1036,0 1,8 0,0
23.01.2020 01:00:00 6,1 6,0 5,9 8 4 7 4 S 1036,5 1,2 0,0
23.01.2020 00:00:00 6,2 6,2 6,0 4 2 7 4 E 1036,5 0,4 0,2
22.01.2020 23:00:00 6,2 6,1 5,9 2 1 4 2 WNW 1036,6 0,4 0,1
22.01.2020 22:00:00 6,2 6,1 5,9 2 1 4 2 WNW 1036,5 0,6 0,1
22.01.2020 21:00:00 6,5 6,4 6,3 4 2 7 4 NW 1036,6 1,3 0,4
22.01.2020 20:00:00 6,6 6,5 6,2 2 1 7 4 WNW 1036,5 1,3 0,2
22.01.2020 19:00:00 6,6 6,4 6,3 2 1 7 4 WNW 1036,2 2,6 0,0
22.01.2020 18:00:00 6,7 6,3 6,1 5 3 7 4 W 1036,0 8 0,0
22.01.2020 17:00:00 7,0 6,4 6,6 4 2 7 4 - 1035,7 7 0,0
22.01.2020 16:00:00 7,0 6,6 6,8 4 2 7 4 WSW 1035,8 2,6 0,0
22.01.2020 15:00:00 7,0 6,8 7,0 4 2 7 4 - 1035,8 2,1 0,0
22.01.2020 14:00:00 6,4 6,4 6,6 9 5 11 6 WSW 1036,0 1,2 0,0
22.01.2020 13:00:00 5,9 5,9 6,4 9 5 11 6 SW 1036,1 0,9 0,0
22.01.2020 12:00:00 5,4 5,4 5,7 9 5 14 8 WSW 1036,6 1,4 0,0
22.01.2020 11:00:00 4,4 4,3 4,5 9 5 11 6 SW 1036,8 1,3 0,0
22.01.2020 10:00:00 4,0 3,9 4,0 8 4 11 6 SW 1036,7 0,9 0,1
22.01.2020 09:00:00 3,4 3,3 3,4 9 5 14 8 SW 1036,3 0,8 0,1
22.01.2020 08:00:00 3,3 3,2 3,3 9 5 14 8 SW 1036,0 2,1 0,0
22.01.2020 07:00:00 3,0 2,9 3,0 9 5 14 8 SW 1035,9 1,6 0,0
22.01.2020 06:00:00 3,0 2,8 3,0 9 5 18 10 SSW 1036,1 1,9 0,0
22.01.2020 05:00:00 3,0 2,8 3,0 13 7 18 10 SW 1036,2 2,0 0,0
22.01.2020 04:00:00 3,1 2,9 3,0 15 8 14 8 SW 1036,8 2,6 0,0
22.01.2020 03:00:00 2,8 2,7 2,8 11 6 14 8 SW 1037,2 2,5 0,0
22.01.2020 02:00:00 2,7 2,6 2,7 13 7 22 12 SW 1037,6 2,4 0,0
22.01.2020 01:00:00 2,7 2,6 2,7 11 6 18 10 SW 1038,1 2,0 0,0
22.01.2020 00:00:00 2,8 2,7 2,7 13 7 22 12 SW 1038,5 2,0 0,0
21.01.2020 23:00:00 2,6 2,5 2,6 13 7 18 10 SW 1038,5 1,8 0,0
21.01.2020 22:00:00 2,5 2,4 2,5 11 6 25 14 SSW 1038,8 1,8 0,0
21.01.2020 21:00:00 2,4 2,3 2,4 13 7 22 12 SSW 1039,5 0,5 0,0
21.01.2020 20:00:00 2,2 2,2 2,2 13 7 22 12 SW 1039,7 1,1 0,0
21.01.2020 19:00:00 2,1 2,0 2,0 16 9 25 14 SSW 1039,2 1,5 0,0
21.01.2020 18:00:00 1,7 1,6 1,8 15 8 25 14 SSW 1039,6 0,5 0,0
21.01.2020 17:00:00 1,9 1,8 2,1 11 6 18 10 SSW 1040,1 0,4 0,0
21.01.2020 16:00:00 2,3 2,0 2,6 13 7 22 12 SSW 1040,7 2,7 0,0
21.01.2020 15:00:00 2,8 2,2 3,5 13 7 22 12 WSW 1040,6 4,3 0,0
21.01.2020 14:00:00 4,6 2,9 5,5 15 8 22 12 SW 1040,9 9 0,0
21.01.2020 13:00:00 4,5 2,7 5,3 15 8 18 10 SW 1041,3 10 0,0
21.01.2020 12:00:00 3,7 1,9 4,3 13 7 22 12 SW 1042,0 10 0,0
21.01.2020 11:00:00 2,9 1,3 2,7 11 6 18 10 WSW 1042,4 10 0,0
21.01.2020 10:00:00 1,3 0,2 0,4 13 7 14 8 SSW 1042,1 10 0,0
21.01.2020 09:00:00 0,0 -0,7 -1,2 8 4 11 6 S 1042,0 7 0,0
21.01.2020 08:00:00 0,6 -0,4 -0,8 13 7 14 8 SSW 1041,9 10 0,0
21.01.2020 07:00:00 1,0 0,2 0,1 13 7 18 10 SSW 1042,1 8 0,0
21.01.2020 06:00:00 1,3 0,9 0,3 13 7 18 10 SSW 1042,5 6 0,0
21.01.2020 05:00:00 1,5 1,4 1,0 16 9 29 16 SSW 1042,5 1,7 0,0
21.01.2020 04:00:00 2,2 2,1 2,2 13 7 22 12 SSW 1043,0 0,4 0,0
21.01.2020 03:00:00 2,0 1,9 1,9 11 6 18 10 SSW 1043,4 0,3 0,0
21.01.2020 02:00:00 2,4 2,4 2,4 13 7 18 10 SW 1044,1 0,3 0,0
21.01.2020 01:00:00 2,8 2,8 2,7 13 7 22 12 SSW 1044,2 0,7 0,0
21.01.2020 00:00:00 2,4 2,3 0,8 8 4 11 6 S 1044,5 1,5 0,0
20.01.2020 23:00:00 1,5 1,4 0,0 8 4 11 6 S 1044,7 1,4 0,0
20.01.2020 22:00:00 2,3 2,0 0,4 8 4 11 6 S 1045,1 4,4 0,0
20.01.2020 21:00:00 2,6 2,2 0,7 8 4 11 6 S 1045,3 7 0,0
20.01.2020 20:00:00 3,4 2,8 1,2 11 6 14 8 SSW 1045,4 10 0,0
20.01.2020 19:00:00 3,9 3,2 2,5 11 6 14 8 SSW 1045,4 10 0,0
20.01.2020 18:00:00 5,2 4,2 4,5 9 5 14 8 SSW 1045,7 10 0,0
20.01.2020 17:00:00 6,1 4,7 5,5 11 6 14 8 SSW 1045,6 10 0,0
20.01.2020 16:00:00 6,9 4,9 6,7 9 5 14 8 SSW 1046,0 10 0,0
20.01.2020 15:00:00 7,3 4,8 7,2 9 5 14 8 SSW 1046,4 10 0,0
20.01.2020 14:00:00 7,3 4,7 7,3 11 6 18 10 WSW 1046,8 10 0,0
20.01.2020 13:00:00 6,8 5,4 6,8 13 7 18 10 SW 1047,2 10 0,0
20.01.2020 12:00:00 6,2 5,1 6,4 11 6 14 8 SW 1047,7 10 0,0
20.01.2020 11:00:00 4,3 3,7 4,0 8 4 11 6 SSW 1047,7 10 0,0
20.01.2020 10:00:00 3,1 2,9 2,4 5 3 7 4 SW 1047,5 6 0,0
20.01.2020 09:00:00 1,7 1,6 1,0 5 3 7 4 SSW 1047,4 5 0,0
20.01.2020 08:00:00 1,3 1,2 0,6 4 2 11 6 SW 1047,1 4,7 0,0
20.01.2020 07:00:00 1,7 1,6 1,0 5 3 14 8 S 1047,3 4,4 0,0
20.01.2020 06:00:00 1,0 0,9 0,1 8 4 7 4 WSW 1046,8 5 0,0
20.01.2020 05:00:00 0,3 0,2 -0,8 4 2 7 4 - 1046,9 1,9 0,0
20.01.2020 04:00:00 0,3 0,2 -1,3 9 5 7 4 W 1047,0 1,7 0,0
20.01.2020 03:00:00 -0,3 -0,4 -2,4 5 3 7 4 WSW 1047,2 0,6 0,0
20.01.2020 02:00:00 0,0 -0,2 -2,0 5 3 7 4 W 1046,9 1,1 0,0
20.01.2020 01:00:00 0,1 -0,1 -1,8 8 4 7 4 W 1046,8 0,8 0,0
20.01.2020 00:00:00 2,4 2,3 -1,1 5 3 11 6 W 1046,8 8 0,0
19.01.2020 23:00:00 3,3 3,1 -0,3 8 4 11 6 WNW 1046,4 9 0,0
19.01.2020 22:00:00 3,7 3,4 0,6 8 4 11 6 NW 1046,1 8 0,0
19.01.2020 21:00:00 4,5 3,8 1,6 9 5 14 8 NW 1045,4 8 0,0
19.01.2020 20:00:00 5,3 4,2 3,6 11 6 14 8 NW 1045,2 9 0,0
19.01.2020 19:00:00 4,6 3,6 1,5 9 5 11 6 NNW 1044,6 9 0,0
19.01.2020 18:00:00 5,6 3,6 3,4 9 5 18 10 NNW 1043,9 10 0,0
19.01.2020 17:00:00 6,2 3,5 4,9 11 6 18 10 NNW 1043,1 10 0,0

tt = temperature
td = dewpoint
tt 5cm = temperature 5cm
ff = wind speed
fx = gusts
dd = wind direction
ppp = reduced air pressure
vv = visibility
rr = precipitation

Next stations